User: anonymous   Login
Location: Bushey
(51.6333°N, 0.3667°W)
Time: 14:42:02
(UTC+00:00)
Language:

Cosmos 1821 Rocket - Orbit

View from above orbital plane
View from above orbital plane
View from above satellite
View from above satellite

Ground track
Ground track

The orbit data is extracted from the following two-line orbital elements,

1 17526U 87017B   21126.94509192  .00000006  00000-0 -89719-5 0  9991
2 17526  82.9039  59.1463 0039353 309.2473  50.5193 13.76893211701465
Epoch (UTC): 06 May 2021 22:40:55
Eccentricity: 0.0039353
inclination: 82.9039°
perigee height: 946 km
apogee height: 1004 km
right ascension of ascending node: 59.1463°
argument of perigee: 309.2473°
revolutions per day: 13.76893211
mean anomaly at epoch: 50.5193°
orbit number at epoch: 70146

The dashed part of the orbit path shows where the satellite is in the earth's shadow,  

DLR